Flag for Germany Weather past 2 weeks in Weißenfels, Saxony-Anhalt, Germany

Now
65 °F

Passing clouds.


Feels Like: 65 °F
Forecast: 55 / 80 °F
Wind: 2 mph from East

Location: Leipzig-Schkeuditz

Current Time: Jul 31, 2014 at 11:54:25 PM

Latest Report: Jul 31, 2014 at 11:00 PM


Visibility: 38 mi

Pressure: 29.97 "Hg

Humidity: 67%

Dew point: 54 °F

Location of WeißenfelsLocation

Historic Weather in Weißenfels — Graph

°F

Weißenfels temperature yesterday

Maximum temperature yesterday: 71 °F (at 5:00 PM)
Minimum temperature yesterday: 65 °F (at 9:00 PM)
Average temperature yesterday: 67 °F

Past Weeks' High & Low Weather Summary

 TemperatureHumidityPressure
High93 °F (Jul 20, 5:00 PM)99% (Jul 26, 5:00 AM)30.19 "Hg (Jul 26, 5:00 AM)
Low58 °F (Jul 24, 5:00 AM)20% (Jul 19, 3:00 PM)29.71 "Hg (Jul 30, 3:00 AM)
Average71 °F69%29.93 "Hg
* Reported Jul 16 10:00 PM — Jul 31 10:00 PM, Weißenfels, Weather by CustomWeather, © 2014

Note: Actual official high and low records may vary slightly from our data, if they occured in-between our weather recording intervals... More about our weather records

Advertising

Weißenfels weather history for previous 24 hours

 ConditionsComfort  
Time TempWeatherWind HumidityBarometerVisibility
10:00 PM
Jul 31
67 °FPassing clouds.2 mph65%29.96 "Hg34 mi
9:00 PM71 °FPassing clouds.2 mph56%29.95 "Hg34 mi
8:00 PM73 °FPassing clouds.2 mph53%29.94 "Hg31 mi
7:00 PM75 °FPartly sunny.1 mph40%29.94 "Hg34 mi
6:00 PM75 °FPartly sunny.2 mph43%29.95 "Hg34 mi
5:00 PM75 °FPartly sunny.2 mph43%29.95 "Hg37 mi
4:00 PM75 °FPartly sunny.3 mph44%29.96 "Hg37 mi
3:00 PM73 °FPartly sunny.3 mph49%29.96 "Hg31 mi
2:00 PM72 °FPartly sunny.2 mph52%29.97 "Hg31 mi
1:00 PM70 °FPartly sunny.2 mph57%29.98 "Hg31 mi
12:00 PM69 °FPartly sunny.3 mph61%29.99 "Hg31 mi
11:00 AM68 °FPartly sunny.3 mph65%29.98 "Hg31 mi
10:00 AM67 °FPartly sunny.3 mph71%29.98 "Hg31 mi
9:00 AM64 °FScattered clouds.3 mph79%29.98 "Hg31 mi
8:00 AM62 °FScattered clouds.2 mph85%29.99 "Hg31 mi
7:00 AM59 °FScattered clouds.1 mph89%29.97 "Hg28 mi
6:00 AM59 °FPassing clouds.2 mph87%29.95 "Hg22 mi
5:00 AM60 °FPassing clouds.2 mph85%29.94 "Hg25 mi
4:00 AM63 °FPassing clouds.2 mph81%29.92 "Hg28 mi
3:00 AM64 °FOvercast.2 mph80%29.91 "Hg25 mi
2:00 AM65 °FOvercast.2 mph83%29.91 "Hg19 mi
1:00 AM66 °FOvercast.2 mph88%29.89 "Hg16 mi
12:00 AM66 °FOvercast.3 mph82%29.88 "Hg16 mi
Weather by CustomWeather, © 2014

See weather overviewHow to use our weather pages